TimeCST,TemperatureF,Dew PointF,Humidity,Sea Level PressureIn,VisibilityMPH,Wind Direction,Wind SpeedMPH,Gust SpeedMPH,PrecipitationIn,Events,Conditions,WindDirDegrees,DateUTC
12:15 AM,14.0,7.7,76,29.87,10.0,NNW,13.8,18.4,N/A,Snow,Light Snow,340,2014-01-15 06:15:00
12:35 AM,13.8,7.7,77,29.88,10.0,North,8.1,-,N/A,Snow,Light Snow,350,2014-01-15 06:35:00
12:55 AM,13.5,7.3,77,29.88,10.0,North,11.5,17.3,N/A,,Overcast,350,2014-01-15 06:55:00
1:15 AM,13.3,6.8,75,29.88,10.0,North,11.5,18.4,N/A,,Overcast,350,2014-01-15 07:15:00
1:35 AM,13.1,6.8,76,29.89,10.0,NNW,9.2,-,N/A,Snow,Light Snow,340,2014-01-15 07:35:00
1:55 AM,13.1,6.8,76,29.90,10.0,NNW,10.4,-,N/A,,Overcast,340,2014-01-15 07:55:00
2:15 AM,13.1,7.0,77,29.90,10.0,North,9.2,-,N/A,Snow,Light Snow,350,2014-01-15 08:15:00
2:35 AM,13.1,7.2,77,29.91,10.0,NNW,8.1,-,N/A,,Overcast,340,2014-01-15 08:35:00
2:55 AM,13.1,7.3,78,29.91,10.0,NNW,11.5,16.1,N/A,Snow,Light Snow,340,2014-01-15 08:55:00
3:15 AM,12.9,7.3,78,29.92,10.0,NNW,8.1,17.3,N/A,Snow,Light Snow,340,2014-01-15 09:15:00
3:35 AM,12.7,7.3,79,29.92,10.0,North,9.2,-,N/A,Snow,Light Snow,360,2014-01-15 09:35:00
3:55 AM,12.7,6.8,77,29.92,10.0,North,9.2,19.6,N/A,Snow,Light Snow,350,2014-01-15 09:55:00
4:15 AM,12.6,6.8,78,29.93,5.0,NW,5.8,-,N/A,Snow,Light Snow,320,2014-01-15 10:15:00
4:35 AM,12.2,6.4,78,29.93,10.0,NNW,5.8,-,N/A,Snow,Light Snow,330,2014-01-15 10:35:00
4:55 AM,12.0,6.4,78,29.93,10.0,North,8.1,-,N/A,Snow,Light Snow,350,2014-01-15 10:55:00
5:15 AM,11.8,6.4,79,29.93,7.0,NW,8.1,-,N/A,Snow,Light Snow,320,2014-01-15 11:15:00
5:35 AM,11.7,6.4,80,29.93,10.0,NNW,6.9,-,N/A,Snow,Light Snow,330,2014-01-15 11:35:00
5:55 AM,11.7,5.9,78,29.93,10.0,NNW,6.9,-,N/A,Snow,Light Snow,330,2014-01-15 11:55:00
6:15 AM,11.3,6.3,80,29.94,7.0,NW,8.1,-,N/A,Snow,Light Snow,320,2014-01-15 12:15:00
6:35 AM,11.3,6.4,81,29.94,5.0,NW,5.8,-,N/A,Snow,Light Snow,310,2014-01-15 12:35:00
6:55 AM,10.9,5.7,79,29.95,7.0,NW,8.1,-,N/A,Snow,Light Snow,320,2014-01-15 12:55:00
7:15 AM,10.4,5.5,81,29.94,4.0,Calm,Calm,-,N/A,Snow,Light Snow,0,2014-01-15 13:15:00
7:35 AM,10.2,5.4,81,29.95,7.0,NW,6.9,-,N/A,Snow,Light Snow,310,2014-01-15 13:35:00
7:55 AM,10.2,5.5,81,29.94,10.0,NW,5.8,-,N/A,Snow,Light Snow,310,2014-01-15 13:55:00
8:15 AM,10.0,5.5,82,29.95,7.0,Calm,Calm,-,N/A,Snow,Light Snow,0,2014-01-15 14:15:00
8:35 AM,10.0,5.5,82,29.95,10.0,NW,3.5,-,N/A,Snow,Light Snow,310,2014-01-15 14:35:00
8:55 AM,9.9,5.0,81,29.95,7.0,WNW,4.6,-,N/A,Snow,Light Snow,300,2014-01-15 14:55:00
9:15 AM,9.9,5.0,81,29.95,5.0,NW,4.6,-,N/A,Snow,Light Snow,320,2014-01-15 15:15:00
9:35 AM,9.5,4.8,81,29.95,7.0,WNW,5.8,-,N/A,Snow,Light Snow,290,2014-01-15 15:35:00
9:55 AM,9.3,4.3,80,29.96,10.0,NNW,4.6,-,N/A,,Overcast,330,2014-01-15 15:55:00
10:15 AM,9.5,4.1,79,29.96,7.0,West,4.6,-,N/A,Snow,Light Snow,260,2014-01-15 16:15:00
10:35 AM,9.7,4.1,78,29.95,10.0,West,5.8,-,N/A,,Overcast,280,2014-01-15 16:35:00
10:55 AM,9.5,4.1,79,29.95,10.0,West,9.2,-,N/A,,Overcast,260,2014-01-15 16:55:00
11:15 AM,9.3,3.7,78,29.93,10.0,WSW,5.8,-,N/A,,Overcast,250,2014-01-15 17:15:00
11:35 AM,9.5,3.7,77,29.92,7.0,WSW,8.1,-,N/A,,Overcast,250,2014-01-15 17:35:00
11:55 AM,8.8,3.0,77,29.91,10.0,West,5.8,-,N/A,,Overcast,270,2014-01-15 17:55:00
12:15 PM,9.5,2.7,74,29.90,10.0,West,6.9,-,N/A,,Overcast,260,2014-01-15 18:15:00
12:35 PM,9.5,2.3,73,29.88,10.0,SW,5.8,-,N/A,,Overcast,230,2014-01-15 18:35:00
12:55 PM,10.4,2.5,70,29.86,10.0,SW,8.1,-,N/A,,Mostly Cloudy,220,2014-01-15 18:55:00
1:15 PM,9.7,1.2,69,29.85,10.0,SW,8.1,-,N/A,,Scattered Clouds,220,2014-01-15 19:15:00
1:35 PM,9.5,1.2,69,29.85,10.0,SW,8.1,-,N/A,,Clear,220,2014-01-15 19:35:00
1:55 PM,9.1,0.3,67,29.85,10.0,SSW,9.2,-,N/A,,Clear,210,2014-01-15 19:55:00
2:15 PM,8.6,-0.4,67,29.84,10.0,SW,8.1,-,N/A,,Clear,230,2014-01-15 20:15:00
2:35 PM,8.1,-0.6,68,29.84,7.0,WSW,11.5,16.1,N/A,,Clear,240,2014-01-15 20:35:00
2:55 PM,6.6,-1.3,70,29.84,10.0,SW,8.1,-,N/A,,Clear,230,2014-01-15 20:55:00
3:15 PM,5.9,-1.3,72,29.85,10.0,SW,12.7,-,N/A,,Clear,230,2014-01-15 21:15:00
3:35 PM,5.7,-1.7,72,29.83,10.0,SW,8.1,-,N/A,,Scattered Clouds,220,2014-01-15 21:35:00
3:55 PM,5.4,-1.8,72,29.83,10.0,WSW,8.1,16.1,N/A,,Mostly Cloudy,240,2014-01-15 21:55:00
4:15 PM,5.5,-1.5,73,29.82,10.0,SW,4.6,-,N/A,,Scattered Clouds,220,2014-01-15 22:15:00
4:35 PM,5.5,-1.7,72,29.80,10.0,SSW,5.8,-,N/A,,Mostly Cloudy,200,2014-01-15 22:35:00
4:55 PM,5.5,-1.3,73,29.78,10.0,South,3.5,-,N/A,,Overcast,190,2014-01-15 22:55:00
5:15 PM,5.9,-0.9,73,29.78,10.0,Calm,Calm,-,N/A,,Overcast,0,2014-01-15 23:15:00
5:35 PM,5.9,-0.8,74,29.77,10.0,SW,5.8,-,N/A,,Overcast,220,2014-01-15 23:35:00
5:55 PM,6.3,-0.4,74,29.73,10.0,SSW,5.8,-,N/A,,Overcast,200,2014-01-15 23:55:00
6:15 PM,6.4,-0.0,75,29.73,10.0,SSW,5.8,-,N/A,,Mostly Cloudy,200,2014-01-16 00:15:00
6:35 PM,6.8,0.5,75,29.72,10.0,SSW,9.2,-,N/A,,Overcast,200,2014-01-16 00:35:00
6:55 PM,7.2,0.9,75,29.71,10.0,SSW,5.8,-,N/A,,Overcast,200,2014-01-16 00:55:00
7:15 PM,7.3,1.4,77,29.68,10.0,SSW,12.7,17.3,N/A,,Overcast,200,2014-01-16 01:15:00
7:35 PM,7.5,1.4,76,29.67,10.0,SSW,6.9,-,N/A,,Overcast,200,2014-01-16 01:35:00
7:55 PM,7.7,1.4,75,29.65,10.0,South,11.5,16.1,N/A,,Overcast,190,2014-01-16 01:55:00
8:15 PM,7.7,1.9,77,29.64,5.0,SSW,9.2,-,N/A,Snow,Light Snow,200,2014-01-16 02:15:00
8:35 PM,8.2,1.9,76,29.62,10.0,South,11.5,17.3,N/A,,Overcast,190,2014-01-16 02:35:00
8:55 PM,8.2,2.1,76,29.57,10.0,South,10.4,17.3,N/A,,Overcast,180,2014-01-16 02:55:00
9:15 PM,8.6,2.3,76,29.57,10.0,South,9.2,16.1,N/A,,Overcast,190,2014-01-16 03:15:00
9:35 PM,8.6,2.3,76,29.58,10.0,SSW,8.1,-,N/A,,Overcast,200,2014-01-16 03:35:00
9:55 PM,9.0,3.9,80,29.57,4.0,SSW,8.1,17.3,N/A,Snow,Light Snow,210,2014-01-16 03:55:00
10:15 PM,9.1,5.5,85,29.56,3.0,SSW,8.1,17.3,N/A,Snow,Light Snow,200,2014-01-16 04:15:00
10:35 PM,9.5,6.4,87,29.53,2.5,South,8.1,-,N/A,Snow,Light Snow,180,2014-01-16 04:35:00
10:55 PM,9.5,6.1,86,29.51,2.0,South,8.1,-,N/A,Snow,Light Snow,190,2014-01-16 04:55:00
11:15 PM,10.0,6.6,86,29.49,1.8,South,8.1,-,N/A,Snow,Light Snow,190,2014-01-16 05:15:00
11:35 PM,10.8,7.2,85,29.48,3.0,South,6.9,-,N/A,Snow,Light Snow,190,2014-01-16 05:35:00
11:55 PM,11.3,7.7,85,29.46,4.0,SSW,9.2,-,N/A,Snow,Light Snow,200,2014-01-16 05:55:00